Location: Newark
(45.4422°N, 16.2769°E)
Time: 00:19:40
(UTC+00:00)

Vanguard 2 - Pass Details

Date: 08 December 2019
Orbit: 553 x 2938 km, 32.9° (Epoch: 27 January)

Event Time Altitude Azimuth Distance (km) Brightness Sun altitude
Rises 05:18:29 0° 270° (W) 6,792 - -10.7°
Exits shadow 05:21:04 - 267° (W) 6,243 11.6 -10.2°
Reaches altitude 10° 05:23:25 10° 264° (W) 5,750 11.4 -9.9°
Maximum altitude 05:38:55 42° 203° (SSW) 3,241 10.7 -7.4°
Drops below altitude 10° 05:50:22 10° 137° (SE) 4,287 12.7 -5.6°
Sets 05:53:28 0° 131° (SE) 4,982 13.7 -5.1°
